Notices

What's New in latest Release from April 7th, 2021:

- Updated Glossary, including Speed of Maximum Gust, and Total Hourly Precipitation

- Updated national and regional climate services offices contacts and prices information

- Addition of station inventory lists for 1981-2010, 1971-2000, and 1961-1990 Normals.

If you haven't already, please take our survey and provide feedback about our website: https://eccc.sondage-survey.ca/f/LanguageSelection.aspx?s=442ca660-fcf1-47c0-95a9-59707d6fd709

Hourly Data Report for December 14, 2019

SAINT JOHN A
NEW BRUNSWICK
Current Station Operator: NAVCAN

45°18'58.000" N
65°53'24.000" W
108.80 m
8104901
71609
YSJ

Download Data

Hourly Data (December 2019)
Hourly Data Report for December 14, 2019
TIME
LST
Temp Definition
°C
Dew Point Definition
°C
Rel Hum Definition
%
Precip. Amount Definition
mm

Wind Dir Definition
10's deg

Wind Spd Definition
km/h
Visibility Definition
km
Stn Press Definition
kPa
Hmdx Definition


Wind Chill Definition


Weather Definition


00:00 3.5 1.6 88   15 20 24.1 101.57     LegendNANA
01:00 3.8 2.0 88   16 17 24.1 101.51     LegendNANA
02:00 4.1 2.4 89   15 15 19.3 101.46     Cloudy
03:00 4.7 3.1 89   15 25 19.3 101.38     LegendNANA
04:00 5.1 3.7 91   15 28 19.3 101.26     LegendNANA
05:00 5.1 3.8 91   14 20 19.3 101.17     Cloudy
06:00 4.9 3.8 93   14 18 19.3 101.12     LegendNANA
07:00 4.6 4.0 96   11 22 8.1 100.99     Fog
08:00 4.4 4.0 97   11 19 4.8 100.88     Rain,Fog
09:00 4.2 3.9 98   11 29 4.8 100.76     Rain,Fog
10:00 4.0 3.5 97   11 23 6.4 100.56     Rain,Fog
11:00 3.7 3.2 97   10 35 4.8 100.33     Moderate Rain,Fog
12:00 3.8 3.3 96   9 35 4.8 99.93     Moderate Rain,Fog
13:00 4.6 4.0 96   11 45 4.0 99.63     Heavy Rain,Fog
14:00 3.9 3.3 96   10 46 4.0 99.40     Moderate Rain,Fog
15:00 3.9 3.4 96   10 35 6.4 99.17     Rain,Fog
16:00 4.5 4.0 97   10 36 4.8 98.94     Moderate Rain,Fog
17:00 5.5 5.0 97   11 35 6.4 98.65     Moderate Rain,Fog
18:00 7.7 7.3 98   11 36 4.8 98.39     Moderate Rain,Fog
19:00 8.5 8.3 99   14 10 3.2 98.27     Heavy Rain,Fog
20:00 9.6 9.5 100   17 11 3.2 98.18     Moderate Rain,Fog
21:00 13.0 12.9 100   19 40 3.2 98.01     Moderate Rain,Fog
22:00 12.5 12.5 100   19 46 3.2 97.96     Rain,Fog
23:00 12.7 12.6 100   18 25 4.8 97.87     Rain,Fog

Notes on Data Quality.

Legend

  • E = Estimated
  • M = Missing
  • NA = Not Available*
  • [empty] = Indicates an unobserved value
Date modified: